Location: Gleizolles
(44.4833°N, 6.7667°E)
Time: 05:02:05
(UTC+00:00)

Vanguard 2 - Pass Details

Date: 30 June 2024
Orbit: 552 x 2913 km, 32.9° (Epoch: 17 July)

Event Time Altitude Azimuth Distance (km) Brightness Sun altitude
Exits shadow 01:26:12 16° 174° (S) 3,503 10.4 -17.9°
Maximum altitude 01:31:28 23° 139° (SE) 3,512 10.7 -17.5°
Drops below altitude 10° 01:41:35 10° 95° (E) 5,212 12.1 -16.6°
Sets 01:47:26 0° 84° (E) 6,517 12.8 -16.1°
